840  
ASUS41 KOKX 240106  
RWROKX  
 
REGIONAL WEATHER ROUNDUP  
NATIONAL WEATHER SERVICE NEW YORK NY  
900 PM EDT WED SEP 23 2020  
 
NOTE: "FAIR" INDICATES FEW OR NO CLOUDS BELOW 12,000 FEET WITH NO  
SIGNIFICANT WEATHER AND/OR S TO VISIBILITY
.  
 
NYZ071-072-176-178-NJZ106-104-240200-  
NEW YORK CITY METRO AREA  
 
CITY SKY/WX TMP DP RH WIND PRES REMARKS
 
CENTRAL PARK CLEAR 72 51 47 CALM 29.92R  
BRONX LEHMAN C N/A 73 54 49 W5 N/A  
LAGUARDIA ARPT CLEAR 78 50 37 W7 29.89R  
QUEENS COLLEGE N/A 75 52 43 W5 N/A  
KENNEDY INTL CLEAR 66 54 65 SW5 29.90R  
BREEZY POINT N/A 70 N/A N/A SW5 N/A  
BROOKLYN COLL N/A 75 52 43 SW3 N/A  
STATEN ISLAND N/A 68 54 60 SE2 N/A  
NEWARK/LIBERTY CLEAR 75 52 44 W6 29.89R  
TETERBORO CLEAR 67 53 61 CALM 29.88R  

 
 
NYZ177-179-078>081-240200-  
LONG ISLAND NEW YORK  
 
CITY SKY/WX TMP DP RH WIND PRES REMARKS
 
JONES BEACH N/A 72 N/A N/A W5 N/A  
WANTAGH N/A 72 55 56 SW5 N/A  
HEMPSTEAD NOT AVBL  
MATINECOCK PT N/A 72 N/A N/A W8 N/A  
FARMINGDALE CLEAR 70 54 56 W3 29.89R  
MACARTHUR/ISP CLEAR 70 54 56 SW8 29.88R  
SHIRLEY PTCLDY 68 53 58 W5 29.88R  
MT SINAI HARB NOT AVBL  
WESTHAMPTON CLEAR 59 54 83 NW5 29.89R  
EAST HAMPTON FAIR 60 56 87 CALM 29.87R  
SOUTHOLD N/A 68 61 77 NW5 N/A  
MONTAUK N/A 70 59 68 NW5 29.87R  

 
 
NYZ052-065-067-240200-  
HUDSON VALLEY  
 
CITY SKY/WX TMP DP RH WIND PRES REMARKS
 
WHITE PLAINS CLEAR 63 53 70 CALM 29.89R  
LARCHMONT HARB N/A 70 N/A N/A SW5 N/A  
CROTON ON HUDS N/A 70 N/A N/A MISG N/A  
SOMERS N/A 64 54 68 NW1 N/A  
BREWSTER N/A 57 55 94 NW1 N/A  
NEWBURGH PTCLDY 66 54 63 NW5 29.90R  
MONTGOMERY CLEAR 57 53 86 CALM 29.90R  
OTISVILLE N/A 66 52 59 NW3 N/A  
WARWICK N/A 57 55 94 CALM N/A  
SUFFERN N/A 66 54 63 W2 N/A  
POUGHKEEPSIE CLEAR 60 53 77 CALM 29.88R  
ALBANY CLEAR 63 53 70 W10 29.89R  

 
 
NJZ001-105-106-008-010-013-015-019>022-104-240200-  
NEW JERSEY  
 
CITY SKY/WX TMP DP RH WIND PRES REMARKS
 
NEWARK/LIBERTY CLEAR 75 52 44 W6 29.89R  
TETERBORO CLEAR 67 53 61 CALM 29.88R  
CALDWELL CLEAR 65 55 70 CALM 29.91R  
SOMERVILLE CLEAR 60 56 86 CALM 29.89R  
LINDEN FAIR 72 50 47 CALM 29.90R  
PERTH AMBOY N/A 70 N/A N/A NW1 N/A  
SUSSEX CLEAR 57 55 93 CALM 29.92R  
ANDOVER N/A 56 54 93 CALM 29.93R  
TRENTON CLEAR 69 53 56 W3 29.90R  
MILLVILLE CLEAR 64 56 75 SW5 29.94R  
ATLANTIC CITY CLEAR 69 55 60 SW7 29.93R  
WRIGHTSTOWN CLEAR 64 55 73 SW8 29.91  
TOMS RIVER CLEAR 62 55 77 SW6 29.92R  
BELMAR CLEAR 69 56 62 SW7 29.92R  

 
 
PAZ047>061-062-071-240200-  
EASTERN PENNSYLVANIA  
 
CITY SKY/WX TMP DP RH WIND PRES REMARKS
 
PHILADELPHIA PTCLDY 71 56 58 SW8 29.93R  
ALLENTOWN CLEAR 65 51 60 CALM 29.91R  
SCRANTON CLEAR 65 44 46 E7 29.95R  

 
 
CTZ002-004>006-009-010-012-RIZ004-006-007-MAZ004-011-015-240200-  
SOUTHERN NEW ENGLAND  
 
IN CT  
 
CITY SKY/WX TMP DP RH WIND PRES REMARKS
 
BRADLEY INTL CLEAR 66 52 60 W9 29.86R  
HARTFORD CLEAR 71 50 47 NW5 29.86R  
DANBURY CLEAR 59 55 87 SW3 29.91R  
WTRBURY/OXFORD CLEAR 60 54 80 CALM 29.90R  
NORWALK HARBOR N/A 70 N/A N/A W6 N/A  
BRIDGEPORT CLEAR 70 54 56 NW3 29.88R  
MERIDEN CLEAR 60 52 74 CALM 29.88R  
NEW HAVEN CLEAR 72 55 55 NW5 29.88R  
CHESTER FAIR 64 54 68 N3 29.88R  
GROTON CLEAR 68 53 58 NW7 29.85R  
WILLIMANTIC CLEAR 68 52 56 W5 29.86R  
 
IN RI  
 
CITY SKY/WX TMP DP RH WIND PRES REMARKS
 
PROVIDENCE PTCLDY 67 54 63 W6 29.84R  
BLOCK ISLAND CLEAR 67 57 70 W8 29.86R  
WESTERLY CLEAR 67 53 61 CALM 29.86R  
 
IN MA  
 
CITY SKY/WX TMP DP RH WIND PRES REMARKS
 
BOSTON PTCLDY 69 49 48 W5 29.82R  
WORCESTER CLEAR 63 53 70 W7 29.87R  
WESTFIELD CLEAR 63 53 70 VRB3 29.86R  
PROVINCETOWN PTCLDY 64 57 78 W6 29.80R  
NANTUCKET PTCLDY 65 59 81 W13 29.81R  

 
 
ANZ330-335-338-340-345-350-353-355-240200-  
COASTAL MARINE OBSERVATIONS  
 
 
STATION/POSITION TIME SKY/WX TEMP WIND PRES VSBY WAVE
 
AIR SEA DIR/SP/G HT/PER  
(UTC) (F) (DEG/KT/KT) (MB) (MI) (FT/S)  
NY HARB ENTRANCE 0040 68 260/ 4/ 6 1011.8  
20 S FIRE ISLAND 0040 67 260/ 8/ 8 1011.8  
GREAT SOUTH BAY 0015 68 270/ 6/ 6 N/A  
23 SSW MONTAUK P 0040 67 65 240/ 6/ 8 1011.3  
15 E BARNEGAT LI 0026 69 N/A 3/13  
HUDSON CANYON 0040 67 1013.5  
KINGS POINT 0030 72 240/ 1/ 2 N/A  
EXECUTION ROCKS 0030 71 230/ 4/ 6 N/A  
WESTERN LI SOUND 2345 73 270/ 6/ 8 N/A  
CENTRAL LI SOUND NOT AVBL  
ROBBINS REEF 0030 76 250/ 6/ 8 N/A  

 
 
>>>>>>>>>>>>>>>>>>>>>>>>>>>> KEY <<<<<<<<<<<<<<<<<<<<<<<<<<<  
> <  
> SKY/WX - SKY CONDITION/PRESENT WEATHER <  
> TMP - TEMPERATURE IN FAHRENHEIT <  
> DP - DEW POINT IN FAHRENHEIT <  
> RH - RELATIVE HUMIDITY IN PERCENT <  
> WIND - DIRECTION (FROM) AND SPEED IN MPH <  
> PRES - MEAN SEA LEVEL PRESSURE (INCHES OF HG) <  
> WCI - WIND CHILL INDEX <  
> VSB - VISIBILITY IN MILES <  
> HX - HEAT INDEX <  
> TC - TEMPERATURE IN CELSIUS <  
> VRB - VARIABLE WIND DIRECTION <  
> <  
>>>>>>>>>>>>>>>>>>>>>>>>>>>> KEY <<<<<<<<<<<<<<<<<<<<<<<<<<<  
 
 
CLICK HERE TO GO TO PREVIOUS BULLETINS.

The Nexlab NY Page
The Nexlab NJ Page
The Nexlab CT Page Main Text Page